Tracking 18957 objects as of 23-Jan-2018
HD Live streaming from Space Station
objects crossing your sky now

SL-16 DEB

Track SL-16 DEB now!
10-day predictions


NORAD ID: 23091
Int'l Code: 1994-023E
Perigee: 848.7 km
Apogee: 1,142.6 km
Inclination: 71.0 °
Period: 104.9 minutes
Semi major axis: 7366 km
RCS: 0.085 m2 (small)
Launch date: April 23, 1994
Source: Commonwealth of Independent States (former USSR) (CIS)
Launch site: TYURATAM MISSILE AND SPACE COMPLEX (TTMTR)

Note: This is SATELLITE DEBRIS
aabbcc
Your satellite tracking list
Your tracking list is empty




NASA's NSSDC Master Catalog

Two Line Element Set (TLE):
1 23091U 94023E   18022.96371170 -.00000032 +00000-0 +91642-5 0  9993
2 23091 070.9832 308.1188 0199517 075.3462 001.4054 13.73089024189968
Source of the keplerian elements: AFSPC